sat.trackr.live / text

‹ back to catalog

FLOCK 4G-8

NORAD 62613 · 2025-009E

PAYLOAD ACTIVE UNKNOWN

§ Identity

Operator
Country
US
Launch date
2025-01-14
Launch site
AFWTR
Launch vehicle
Mass (kg)
RCS (m²)

Purposes: earth_obs

External: N2YO · Heavens-Above · Gunter

§ Orbital elements

Epoch: 2026-05-25T04:29:29.099040Z

Period
94.16 min
Inclination
97.4005°
Eccentricity
0.0004972
Mean motion
15.29232068 rev/d
Perigee alt
474.7 km
Apogee alt
481.5 km
Semi-major
6,856.2 km
B*
3.7588e-4
RAAN
227.2967°
Arg perigee
56.1308°
Mean anomaly
304.0405°
Rev number
7,540

§ Raw data

FLOCK 4G-81 62613U 25009E   26145.18714235  .00010593  00000+0  37588-3 0  99942 62613  97.4005 227.2967 0004972  56.1308 304.0405 15.29232068 75405

JSON: /api/v1/satellites/62613 · /tle

For live sub-satellite position, see the globe view (requires WebGL).

§ Visibility from observer

Set your observer location to see the next 7 days of passes ≥ 10°. The values pass through the URL so the page stays shareable.

No JS? Fill the form by hand. The geolocation button needs JavaScript.